Regional Weather Roundup
Issued by NWS Bismarck, ND

Home | Current Version | Previous Version | Text Only | Print | Product List | Glossary On
Versions: 1 2 3 4 5 6 7 8 9 10 11 12 13 14 15 16 17 18 19 20 21 22 23 24 25 26 27 28 29 30 31 32 33 34 35 36 37 38 39 40 41 42 43 44 45 46 47 48 49 50
023
ASUS43 KBIS 231602
RWRBIS

NWR BROADCAST TEXT
NATIONAL WEATHER SERVICE BISMARCK ND
1000 AM CST THU NOV 23 2017

NOTE: "FAIR" INDICATES FEW OR NO CLOUDS BELOW 12,000 FEET WITH NO
SIGNIFICANT WEATHER AND/OR OBSTRUCTIONS TO VISIBILITY.


CITY           SKY/WX    TMP DP  RH WIND       PRES   REMARKS
WILLISTON      CLOUDY    42  38  85 SW8       29.67F
MINOT          CLOUDY    43  36  76 SW10      29.65F
MINOT AFB      CLOUDY    41  36  83 SW6       29.63F
BISMARCK       CLOUDY    36  32  85 E3        29.77F
DICKINSON      CLOUDY    51  39  63 W12       29.74F
GARRISON         N/A     36  36 100 S3        29.70F
HETTINGER ARPT CLOUDY    48  39  71 W7        29.83F
JAMESTOWN      CLOUDY    34  28  79 S12       29.76F
CARRINGTON     FAIR      34  32  93 S6        29.75F
HAZEN          FAIR      37  36  93 SW3       29.74F
LINTON           N/A     37  32  81 SE5       29.81F
MANDAN         FAIR      43  41  93 S5        29.76F
OAKES            N/A     28  28 100 S14       29.83F WCI  17
RUGBY          FAIR      28  25  86 SE7       29.70F
STANLEY        FAIR      39  39 100 W14       29.68F
TIOGA          FAIR      39  39 100 SW9       29.67F
WATFORD CITY   FAIR      45  41  87 SW15      29.68F
$$

CITY           SKY/WX    TMP DP  RH WIND       PRES   REMARKS
GRAND FORKS    CLOUDY    31  29  92 S10       29.83F
GRAND FORKS AF CLOUDY    31  30  94 S7        29.81F
DEVILS LAKE    SUNNY     25  23  92 SE13      29.75F WCI  14
FARGO          CLOUDY    29  28  96 S10       29.86F FOG     WCI  20
CANDO          FAIR      27  27 100 SE9       29.75S WCI  17
CAVALIER       CLOUDY    25  27 100 CALM      29.81F FOG
GRAFTON        CLOUDY    28  30 100 S7        29.84F
GWINNER          N/A     30  27  86 S12       29.83F
LANGDON        FOG       27  28 100 SE12      29.75F VSB<1/4 WCI  16
ROLLA          FAIR      23  23 100 S7        29.71F WCI  15
WALHALLA       FAIR      27  27 100 SE7       29.80F WCI  19
$$

CITY           SKY/WX    TMP DP  RH WIND       PRES   REMARKS
ABERDEEN       CLOUDY    33  27  78 S13       29.87F
MOBRIDGE       CLOUDY    42  37  82 SE10      29.80F
RAPID CITY     SUNNY     57  39  51 CALM      29.94F
GLASGOW        CLOUDY    54  40  59 W7        29.65F
SIDNEY         CLOUDY    46  40  79 S14       29.69F
WOLF POINT     CLOUDY    34  30  85 CALM      29.67F
GLENDIVE       MOSUNNY   47  40  76 S12       29.75F
MILES CITY     MOSUNNY   45  39  79 SE9       29.81F
BAKER          CLOUDY    53  40  61 W10       29.82F
$$

CITY           SKY/WX    TMP DP  RH WIND       PRES   REMARKS
BILLINGS       CLOUDY    55  38  52 W15       29.87F
GREAT FALLS    CLOUDY    58  36  43 SW23G32   29.74F
$$





USA.gov is the U.S. government's official web portal to all federal, state and local government web resources and services.